TimeHST,TemperatureF,Dew PointF,Humidity,Sea Level PressureIn,VisibilityMPH,Wind Direction,Wind SpeedMPH,Gust SpeedMPH,PrecipitationIn,Events,Conditions,WindDirDegrees,DateUTC
12:54 AM,64.9,55.0,70,30.08,10.0,Calm,Calm,-,N/A,,Clear,0,2012-11-30 10:54:00
1:54 AM,62.1,54.0,75,30.07,10.0,Calm,Calm,-,N/A,,Clear,0,2012-11-30 11:54:00
2:54 AM,62.1,55.0,78,30.05,10.0,ENE,3.5,-,N/A,,Clear,60,2012-11-30 12:54:00
3:54 AM,66.9,57.9,73,30.04,10.0,NE,4.6,-,N/A,,Clear,40,2012-11-30 13:54:00
4:54 AM,63.0,55.9,78,30.05,10.0,Calm,Calm,-,N/A,,Clear,0,2012-11-30 14:54:00
5:54 AM,63.0,55.9,78,30.05,10.0,Calm,Calm,-,N/A,,Clear,0,2012-11-30 15:54:00
6:54 AM,57.9,53.1,84,30.06,10.0,North,5.8,-,N/A,,Clear,10,2012-11-30 16:54:00
7:54 AM,68.0,61.0,78,30.09,9.0,Calm,Calm,-,N/A,,Clear,0,2012-11-30 17:54:00
8:54 AM,75.0,59.0,57,30.10,10.0,SSE,3.5,-,N/A,,Clear,160,2012-11-30 18:54:00
9:54 AM,78.1,59.0,52,30.08,10.0,SSE,6.9,-,N/A,,Clear,150,2012-11-30 19:54:00
10:54 AM,77.0,62.1,60,30.08,10.0,SE,6.9,-,N/A,,Clear,140,2012-11-30 20:54:00
11:54 AM,79.0,59.0,50,30.06,10.0,SE,8.1,-,N/A,,Scattered Clouds,130,2012-11-30 21:54:00
12:54 PM,80.1,60.1,50,30.04,10.0,SSE,10.4,-,N/A,,Clear,160,2012-11-30 22:54:00
1:54 PM,79.0,61.0,54,30.01,10.0,SSE,6.9,-,N/A,,Clear,160,2012-11-30 23:54:00
2:54 PM,80.1,62.1,54,30.02,10.0,Variable,5.8,-,N/A,,Scattered Clouds,0,2012-12-01 00:54:00
3:54 PM,78.1,62.1,58,30.01,10.0,NNW,3.5,-,N/A,,Scattered Clouds,330,2012-12-01 01:54:00
4:54 PM,75.9,61.0,60,30.02,10.0,North,5.8,-,N/A,,Scattered Clouds,350,2012-12-01 02:54:00
5:54 PM,75.0,62.1,64,30.04,10.0,Calm,Calm,-,N/A,,Mostly Cloudy,0,2012-12-01 03:54:00
6:54 PM,72.0,62.1,71,30.06,10.0,East,3.5,-,N/A,,Clear,90,2012-12-01 04:54:00
7:54 PM,69.1,60.1,73,30.08,10.0,Calm,Calm,-,N/A,,Clear,0,2012-12-01 05:54:00
8:54 PM,69.1,61.0,75,30.09,10.0,ENE,4.6,-,N/A,,Clear,70,2012-12-01 06:54:00
9:54 PM,69.1,61.0,75,30.09,10.0,ENE,5.8,-,N/A,,Clear,60,2012-12-01 07:54:00
10:54 PM,64.9,59.0,81,30.10,10.0,Calm,Calm,-,N/A,,Clear,0,2012-12-01 08:54:00
11:54 PM,64.9,60.1,84,30.10,10.0,Calm,Calm,-,N/A,,Clear,0,2012-12-01 09:54:00